Terminal Aerodrome Forecast
Issued by NWS Charleston, WV

Current Version | Previous Version | Graphics & Text | Print | Product List | Glossary On
Versions: 1 2 3 4 5 6 7 8 9 10 11 12 13 14 15 16 17 18 19 20 21 22
000
FTUS41 KRLX 161700 RRA
TAFHTS
TAF
KHTS 161745Z 1618/1718 25013G22KT P6SM OVC020
     FM162100 25011G19KT 6SM -DZ BR OVC015
     FM170500 25010G16KT P6SM OVC012
     FM171500 26009G15KT P6SM BKN018=

USA.gov is the U.S. government's official web portal to all federal, state and local government web resources and services.